This is the latest recevied weather packets stored in our database for station/object SV2BZQ-2. If no packets are shown the sender has not sent any weather packets the latest 10 day(s).
| Time | Temp. | Humidity | Pressure | Rain* | Wind** | Luminosity | Snow |
|---|---|---|---|---|---|---|---|
| 1777613426 | 9.44° C | 76% | 1019.9 hPa | 0 mm | - | 120 W/m² | - |
| 1777610645 | 8.89° C | 77% | 1019.7 hPa | 0 mm | - | 176 W/m² | - |
| 1777610030 | 8.33° C | 76% | 1019.4 hPa | 0 mm | - | 60 W/m² | - |
| 1777609358 | 8.33° C | 76% | 1019.3 hPa | 0 mm | - | 25 W/m² | - |
| 1777608513 | 8.33° C | 76% | 1019.2 hPa | 0 mm | - | 16 W/m² | - |
| 1777606464 | 8.89° C | 75% | 1019 hPa | 0 mm | - | 0 W/m² | - |
| 1777603265 | 9.44° C | 74% | 1018.9 hPa | 0 mm | - | 0 W/m² | - |
| 1777601656 | 9.44° C | 73% | 1018.8 hPa | 0 mm | - | 0 W/m² | - |
| 1777599017 | 9.44° C | 75% | 1019 hPa | 0 mm | - | 0 W/m² | - |
| 1777597042 | 9.44° C | 76% | 1019.1 hPa | 0 mm | - | 0 W/m² | - |
| 1777594792 | 10° C | 76% | 1018.7 hPa | 0 mm | - | 0 W/m² | - |
| 1777594575 | 10° C | 76% | 1018.7 hPa | 0 mm | - | 0 W/m² | - |
| 1777594341 | 10° C | 75% | 1018.6 hPa | 0 mm | - | 0 W/m² | - |
| 1777592973 | 10° C | 76% | 1018.4 hPa | 0 mm | - | 0 W/m² | - |
| 1777592722 | 10° C | 76% | 1018.4 hPa | 0 mm | - | 0 W/m² | - |
| 1777592068 | 10° C | 76% | 1018.6 hPa | 0 mm | - | 0 W/m² | - |
| 1777590867 | 10.56° C | 77% | 1018.4 hPa | 0 mm | - | 0 W/m² | - |
| 1777589360 | 10.56° C | 77% | 1018.5 hPa | 0 mm | - | 0 W/m² | - |
| 1777589061 | 10.56° C | 77% | 1018.6 hPa | 0 mm | - | 0 W/m² | - |
| 1777588758 | 10.56° C | 78% | 1018.7 hPa | 0 mm | - | 0 W/m² | - |
| 1777587405 | 10° C | 82% | 1018.6 hPa | 0 mm | - | 0 W/m² | - |
| 1777584765 | 10° C | 81% | 1018.5 hPa | 0 mm | - | 0 W/m² | - |
| 1777581177 | 10° C | 82% | 1018.3 hPa | 0 mm | - | 0 W/m² | - |
| 1777576728 | 10° C | 85% | 1017.9 hPa | 0 mm | - | 0 W/m² | - |
| 1777576432 | 9.44° C | 85% | 1017.8 hPa | 0 mm | - | 0 W/m² | - |
* Rain latest hour (hover to see other rain measurements)
** Current wind speed in m/s (hover to see current wind gust speed)